| time (UTC) | temp F | wind direction | speed MPH | gust MPH | rain 1hr in | rain 24hr in | rain mn in | humidity % | barometer mb |
| 20260905163133 | 80 | 50 | 13.0 | 13.0 | 0.00 | 0.00 | 0.00 | 95 | 1016.0 |
| 20260905162632 | 81 | 50 | 13.0 | 13.0 | 0.00 | 0.00 | 0.00 | 93 | 1016.0 |
| 20260905162131 | 81 | 50 | 13.0 | 13.0 | 0.00 | 0.00 | 0.00 | 93 | 1016.0 |
| 20260905161628 | 81 | 50 | 13.0 | 13.0 | 0.00 | 0.00 | 0.00 | 90 | 1016.0 |
| 20260905161126 | 81 | 50 | 13.0 | 13.0 | 0.00 | 0.00 | 0.00 | 90 | 1016.0 |
| 20260905160624 | 81 | 50 | 13.0 | 13.0 | 0.00 | 0.00 | 0.00 | 90 | 1016.0 |
| 20260905160123 | 81 | 60 | 12.0 | 12.0 | 0.00 | 0.00 | 0.00 | 90 | 1016.0 |
| 20260905155621 | 81 | 60 | 12.0 | 12.0 | 0.00 | 0.00 | 0.00 | 90 | 1016.0 |
| 20260905155120 | 82 | 60 | 12.0 | 12.0 | 0.00 | 0.00 | 0.00 | 69 | 1016.0 |
| 20260905154618 | 82 | 60 | 12.0 | 12.0 | 0.00 | 0.00 | 0.00 | 69 | 1016.0 |
| 20260905154116 | 82 | 60 | 12.0 | 12.0 | 0.00 | 0.00 | 0.00 | 86 | 1016.0 |
| 20260905153614 | 82 | 60 | 12.0 | 12.0 | 0.00 | 0.00 | 0.00 | 86 | 1016.0 |
| 20260905153111 | 82 | 60 | 13.0 | 13.0 | 0.00 | 0.00 | 0.00 | 84 | 1016.0 |
| 20260905152610 | 82 | 60 | 13.0 | 13.0 | 0.00 | 0.00 | 0.00 | 84 | 1016.0 |
| 20260905152108 | 83 | 60 | 13.0 | 13.0 | 0.00 | 0.00 | 0.00 | 85 | 1016.0 |
| 20260905151606 | 83 | 60 | 13.0 | 13.0 | 0.00 | 0.00 | 0.00 | 85 | 1016.0 |
| 20260905151104 | 84 | 60 | 16.0 | 16.0 | 0.00 | 0.00 | 0.00 | 72 | 1016.0 |
| 20260905150602 | 84 | 60 | 16.0 | 16.0 | 0.00 | 0.00 | 0.00 | 72 | 1016.0 |
| 20260905150100 | 84 | 60 | 16.0 | 16.0 | 0.00 | 0.00 | 0.00 | 67 | 1016.0 |
| 20260905145559 | 85 | 60 | 16.0 | 16.0 | 0.00 | 0.00 | 0.00 | 34 | 1016.0 |
| 20260905145057 | 85 | 60 | 16.0 | 16.0 | 0.00 | 0.00 | 0.00 | 34 | 1016.0 |
| 20260905144556 | 85 | 60 | 16.0 | 16.0 | 0.00 | 0.00 | 0.00 | 39 | 1016.0 |
| 20260905144055 | 85 | 60 | 16.0 | 16.0 | 0.00 | 0.00 | 0.00 | 49 | 1016.0 |
| 20260905143553 | 85 | 40 | 13.0 | 13.0 | 0.00 | 0.00 | 0.00 | 72 | 1016.0 |
| 20260905143050 | 85 | 40 | 13.0 | 13.0 | 0.00 | 0.00 | 0.00 | 72 | 1016.0 |
| 20260905142548 | 85 | 40 | 13.0 | 13.0 | 0.00 | 0.00 | 0.00 | 72 | 1016.0 |
| 20260905142046 | 85 | 40 | 13.0 | 13.0 | 0.00 | 0.00 | 0.00 | 72 | 1016.0 |
| 20260905141544 | 85 | 40 | 13.0 | 13.0 | 0.00 | 0.00 | 0.00 | 73 | 1016.0 |
| 20260905141039 | 85 | 40 | 13.0 | 13.0 | 0.00 | 0.00 | 0.00 | 73 | 1016.0 |
| 20260905140537 | 85 | 50 | 13.0 | 13.0 | 0.00 | 0.00 | 0.00 | 71 | 1016.0 |
| 20260905140036 | 85 | 50 | 13.0 | 13.0 | 0.00 | 0.00 | 0.00 | 71 | 1016.0 |
| 20260905135535 | 85 | 50 | 13.0 | 13.0 | 0.00 | 0.00 | 0.00 | 71 | 1016.0 |
| 20260905135033 | 85 | 50 | 13.0 | 13.0 | 0.00 | 0.00 | 0.00 | 71 | 1016.0 |
| 20260905134532 | 85 | 50 | 13.0 | 13.0 | 0.00 | 0.00 | 0.00 | 70 | 1016.0 |
| 20260905134030 | 85 | 50 | 13.0 | 13.0 | 0.00 | 0.00 | 0.00 | 70 | 1016.0 |
| 20260905133529 | 85 | 50 | 13.0 | 13.0 | 0.00 | 0.00 | 0.00 | 70 | 1016.0 |
| 20260905133028 | 85 | 30 | 13.0 | 13.0 | 0.00 | 0.00 | 0.00 | 67 | 1016.0 |
| 20260905132527 | 85 | 30 | 13.0 | 13.0 | 0.00 | 0.00 | 0.00 | 67 | 1016.0 |
| 20260905132026 | 85 | 30 | 13.0 | 13.0 | 0.00 | 0.00 | 0.00 | 69 | 1016.0 |
| 20260905131524 | 85 | 30 | 13.0 | 13.0 | 0.00 | 0.00 | 0.00 | 69 | 1016.0 |
| 20260905131022 | 85 | 30 | 13.0 | 13.0 | 0.00 | 0.00 | 0.00 | 69 | 1016.0 |
| 20260905130520 | 85 | 60 | 13.0 | 13.0 | 0.00 | 0.00 | 0.00 | 71 | 1016.0 |
| 20260905130017 | 85 | 60 | 13.0 | 13.0 | 0.00 | 0.00 | 0.00 | 71 | 1016.0 |
| 20260905125515 | 85 | 60 | 13.0 | 13.0 | 0.00 | 0.00 | 0.00 | 71 | 1016.0 |
| 20260905125012 | 85 | 60 | 13.0 | 13.0 | 0.00 | 0.00 | 0.00 | 71 | 1016.0 |
| 20260905124510 | 85 | 60 | 13.0 | 13.0 | 0.00 | 0.00 | 0.00 | 70 | 1016.0 |
| 20260905124008 | 85 | 60 | 13.0 | 13.0 | 0.00 | 0.00 | 0.00 | 70 | 1016.0 |
| 20260905123506 | 86 | 50 | 13.0 | 13.0 | 0.00 | 0.00 | 0.00 | 71 | 1016.0 |
| 20260905123006 | 86 | 50 | 13.0 | 13.0 | 0.00 | 0.00 | 0.00 | 71 | 1016.0 |
| 20260905122504 | 86 | 50 | 13.0 | 13.0 | 0.00 | 0.00 | 0.00 | 71 | 1017.0 |
| 20260905122003 | 86 | 50 | 13.0 | 13.0 | 0.00 | 0.00 | 0.00 | 71 | 1017.0 |
| 20260905121501 | 86 | 50 | 13.0 | 13.0 | 0.00 | 0.00 | 0.00 | 70 | 1017.0 |
| 20260905120958 | 86 | 50 | 13.0 | 13.0 | 0.00 | 0.00 | 0.00 | 70 | 1017.0 |
| 20260905120457 | 86 | 50 | 14.0 | 14.0 | 0.00 | 0.00 | 0.00 | 70 | 1016.0 |
| 20260905115956 | 86 | 50 | 14.0 | 14.0 | 0.00 | 0.00 | 0.00 | 67 | 1016.0 |
| 20260905115454 | 86 | 50 | 14.0 | 14.0 | 0.00 | 0.00 | 0.00 | 67 | 1016.0 |
| 20260905114953 | 86 | 50 | 14.0 | 14.0 | 0.00 | 0.00 | 0.00 | 67 | 1016.0 |
| 20260905114452 | 86 | 50 | 14.0 | 14.0 | 0.00 | 0.00 | 0.00 | 67 | 1016.0 |
| 20260905113950 | 86 | 50 | 14.0 | 14.0 | 0.00 | 0.00 | 0.00 | 68 | 1016.0 |
| 20260905113448 | 85 | 230 | 6.0 | 6.0 | 0.00 | 0.00 | 0.00 | 78 | 1017.0 |
| 20260905112946 | 85 | 230 | 6.0 | 6.0 | 0.00 | 0.00 | 0.00 | 78 | 1017.0 |
| 20260905112444 | 85 | 230 | 6.0 | 6.0 | 0.00 | 0.00 | 0.00 | 78 | 1017.0 |
| 20260905111942 | 83 | 230 | 6.0 | 6.0 | 0.00 | 0.00 | 0.00 | 78 | 1017.0 |
| 20260905111439 | 84 | 230 | 6.0 | 6.0 | 0.00 | 0.00 | 0.00 | 79 | 1017.0 |
| 20260905110937 | 84 | 230 | 6.0 | 6.0 | 0.00 | 0.00 | 0.00 | 79 | 1017.0 |
| 20260905110436 | 85 | 150 | 6.0 | 6.0 | 0.00 | 0.00 | 0.00 | 81 | 1017.0 |
| 20260905105934 | 85 | 150 | 6.0 | 6.0 | 0.00 | 0.00 | 0.00 | 89 | 1017.0 |
| 20260905105433 | 85 | 150 | 6.0 | 6.0 | 0.00 | 0.00 | 0.00 | 89 | 1017.0 |
| 20260905104930 | 85 | 150 | 6.0 | 6.0 | 0.00 | 0.00 | 0.00 | 88 | 1017.0 |
| 20260905104428 | 83 | 150 | 6.0 | 6.0 | 0.00 | 0.00 | 0.00 | 83 | 1017.0 |
| 20260905103927 | 83 | 150 | 6.0 | 6.0 | 0.00 | 0.00 | 0.00 | 83 | 1017.0 |
| 20260905103423 | 79 | 150 | 6.0 | 6.0 | 0.00 | 0.00 | 0.00 | 61 | 1017.0 |
| 20260905102922 | 79 | 150 | 6.0 | 6.0 | 0.00 | 0.00 | 0.00 | 61 | 1017.0 |
| 20260905102421 | 79 | 150 | 6.0 | 6.0 | 0.00 | 0.00 | 0.00 | 61 | 1017.0 |
| 20260905101920 | 79 | 150 | 6.0 | 6.0 | 0.00 | 0.00 | 0.00 | 61 | 1017.0 |
| 20260905101417 | 79 | 170 | 8.0 | 8.0 | 0.00 | 0.00 | 0.00 | 69 | 1017.0 |
| 20260905100915 | 79 | 170 | 8.0 | 8.0 | 0.00 | 0.00 | 0.00 | 69 | 1017.0 |
| 20260905100414 | 79 | 170 | 8.0 | 8.0 | 0.00 | 0.00 | 0.00 | 69 | 1017.0 |
| 20260905095911 | 77 | 170 | 8.0 | 8.0 | 0.00 | 0.00 | 0.00 | 69 | 1017.0 |
| 20260905095409 | 77 | 170 | 8.0 | 8.0 | 0.00 | 0.00 | 0.00 | 69 | 1017.0 |
| 20260905094907 | 77 | 170 | 8.0 | 8.0 | 0.00 | 0.00 | 0.00 | 69 | 1017.0 |
| 20260905094403 | 77 | 170 | 8.0 | 8.0 | 0.00 | 0.00 | 0.00 | 69 | 1017.0 |
| 20260905093902 | 76 | 170 | 6.0 | 6.0 | 0.00 | 0.00 | 0.00 | 73 | 1017.0 |
| 20260905093359 | 76 | 170 | 6.0 | 6.0 | 0.00 | 0.00 | 0.00 | 73 | 1017.0 |
| 20260905092857 | 76 | 170 | 6.0 | 6.0 | 0.00 | 0.00 | 0.00 | 74 | 1018.0 |
| 20260905092356 | 76 | 170 | 6.0 | 6.0 | 0.00 | 0.00 | 0.00 | 74 | 1018.0 |
| 20260905091854 | 76 | 170 | 6.0 | 6.0 | 0.00 | 0.00 | 0.00 | 74 | 1018.0 |
| 20260905091352 | 76 | 170 | 6.0 | 6.0 | 0.00 | 0.00 | 0.00 | 76 | 1018.0 |
| 20260905090851 | 76 | 170 | 6.0 | 6.0 | 0.00 | 0.00 | 0.00 | 76 | 1018.0 |
| 20260905090350 | 76 | 140 | 8.0 | 8.0 | 0.00 | 0.00 | 0.00 | 80 | 1018.0 |
| 20260905085848 | 78 | 140 | 8.0 | 8.0 | 0.00 | 0.00 | 0.00 | 89 | 1018.0 |
| 20260905085347 | 78 | 140 | 8.0 | 8.0 | 0.00 | 0.00 | 0.00 | 89 | 1018.0 |
| 20260905084844 | 78 | 140 | 8.0 | 8.0 | 0.00 | 0.00 | 0.00 | 90 | 1018.0 |
| 20260905084342 | 78 | 150 | 8.0 | 8.0 | 0.00 | 0.00 | 0.00 | 91 | 1018.0 |
| 20260905083839 | 78 | 150 | 8.0 | 8.0 | 0.00 | 0.00 | 0.00 | 91 | 1018.0 |
| 20260905083338 | 79 | 150 | 8.0 | 8.0 | 0.00 | 0.00 | 0.00 | 95 | 1018.0 |
| 20260905082836 | 78 | 150 | 8.0 | 8.0 | 0.00 | 0.00 | 0.00 | 89 | 1018.0 |
| 20260905082334 | 78 | 150 | 8.0 | 8.0 | 0.00 | 0.00 | 0.00 | 89 | 1018.0 |
| 20260905081832 | 78 | 150 | 8.0 | 8.0 | 0.00 | 0.00 | 0.00 | 89 | 1018.0 |
| 20260905081331 | 78 | 150 | 8.0 | 8.0 | 0.00 | 0.00 | 0.00 | 89 | 1018.0 |
| 20260905080830 | 78 | 110 | 8.0 | 8.0 | 0.00 | 0.00 | 0.00 | 89 | 1018.0 |
| 20260905080328 | 78 | 110 | 8.0 | 8.0 | 0.00 | 0.00 | 0.00 | 89 | 1018.0 |
| 20260905075827 | 78 | 110 | 8.0 | 8.0 | 0.00 | 0.00 | 0.00 | 89 | 1018.0 |
| 20260905075326 | 78 | 110 | 8.0 | 8.0 | 0.00 | 0.00 | 0.00 | 89 | 1018.0 |
| 20260905074823 | 78 | 110 | 8.0 | 8.0 | 0.00 | 0.00 | 0.00 | 89 | 1018.0 |
| 20260905074322 | 78 | 110 | 8.0 | 8.0 | 0.00 | 0.00 | 0.00 | 89 | 1018.0 |
| 20260905073820 | 78 | 110 | 8.0 | 8.0 | 0.00 | 0.00 | 0.00 | 89 | 1018.0 |
| 20260905073317 | 78 | 80 | 6.0 | 6.0 | 0.00 | 0.00 | 0.00 | 87 | 1018.0 |
| 20260905072815 | 78 | 80 | 6.0 | 6.0 | 0.00 | 0.00 | 0.00 | 86 | 1018.0 |
| 20260905072312 | 78 | 80 | 6.0 | 6.0 | 0.00 | 0.00 | 0.00 | 83 | 1018.0 |
| 20260905071809 | 78 | 80 | 6.0 | 6.0 | 0.00 | 0.00 | 0.00 | 83 | 1018.0 |
| 20260905071308 | 76 | 80 | 6.0 | 6.0 | 0.00 | 0.00 | 0.00 | 69 | 1018.0 |
| 20260905070806 | 76 | 80 | 6.0 | 6.0 | 0.00 | 0.00 | 0.00 | 69 | 1018.0 |
| 20260905070304 | 76 | 40 | 10.0 | 10.0 | 0.00 | 0.00 | 0.00 | 65 | 1018.0 |
| 20260905065802 | 76 | 40 | 10.0 | 10.0 | 0.00 | 0.00 | 0.00 | 65 | 1018.0 |
| 20260905065300 | 76 | 40 | 10.0 | 10.0 | 0.00 | 0.00 | 0.00 | 65 | 1018.0 |
| 20260905064757 | 76 | 40 | 10.0 | 10.0 | 0.00 | 0.00 | 0.00 | 65 | 1018.0 |
| 20260905064255 | 76 | 40 | 10.0 | 10.0 | 0.00 | 0.00 | 0.00 | 65 | 1018.0 |
| 20260905063753 | 76 | 40 | 10.0 | 10.0 | 0.00 | 0.00 | 0.00 | 65 | 1018.0 |
| 20260905063252 | 76 | 50 | 10.0 | 10.0 | 0.00 | 0.00 | 0.00 | 65 | 1018.0 |
| 20260905062750 | 76 | 50 | 10.0 | 10.0 | 0.00 | 0.00 | 0.00 | 65 | 1018.0 |
| 20260905062249 | 76 | 50 | 10.0 | 10.0 | 0.00 | 0.00 | 0.00 | 65 | 1018.0 |
| 20260905061747 | 76 | 50 | 10.0 | 10.0 | 0.00 | 0.00 | 0.00 | 65 | 1018.0 |
| 20260905061244 | 76 | 50 | 10.0 | 10.0 | 0.00 | 0.00 | 0.00 | 65 | 1018.0 |
| 20260905060742 | 76 | 50 | 10.0 | 10.0 | 0.00 | 0.00 | 0.00 | 65 | 1018.0 |
| 20260905060239 | 74 | 40 | 6.0 | 6.0 | 0.00 | 0.00 | 0.00 | 78 | 1018.0 |
| 20260905055737 | 75 | 40 | 6.0 | 6.0 | 0.00 | 0.00 | 0.00 | 96 | 1018.0 |
| 20260905055229 | 75 | 40 | 6.0 | 6.0 | 0.00 | 0.00 | 0.00 | 96 | 1018.0 |
| 20260905054727 | 75 | 40 | 6.0 | 6.0 | 0.00 | 0.00 | 0.00 | 96 | 1018.0 |
| 20260905054224 | 75 | 40 | 6.0 | 6.0 | 0.00 | 0.00 | 0.00 | 96 | 1018.0 |
| 20260905053722 | 72 | 30 | 4.0 | 4.0 | 0.00 | 0.00 | 0.00 | 83 | 1018.0 |
| 20260905053220 | 72 | 30 | 4.0 | 4.0 | 0.00 | 0.00 | 0.00 | 83 | 1018.0 |
| 20260905052719 | 72 | 30 | 4.0 | 4.0 | 0.00 | 0.00 | 0.00 | 83 | 1018.0 |
| 20260905052216 | 72 | 30 | 4.0 | 4.0 | 0.00 | 0.00 | 0.00 | 83 | 1018.0 |
| 20260905051709 | 72 | 30 | 4.0 | 4.0 | 0.00 | 0.00 | 0.00 | 83 | 1018.0 |
| 20260905051208 | 72 | 30 | 4.0 | 4.0 | 0.00 | 0.00 | 0.00 | 83 | 1018.0 |
| 20260905050707 | 72 | 30 | 4.0 | 4.0 | 0.00 | 0.00 | 0.00 | 83 | 1018.0 |
| 20260905050204 | 71 | 360 | 4.0 | 4.0 | 0.00 | 0.00 | 0.00 | 98 | 1018.0 |
| 20260905045701 | 71 | 360 | 4.0 | 4.0 | 0.00 | 0.00 | 0.00 | 98 | 1018.0 |
| 20260905045200 | 70 | 360 | 4.0 | 4.0 | 0.00 | 0.00 | 0.00 | 98 | 1017.0 |
| 20260905044658 | 70 | 360 | 4.0 | 4.0 | 0.00 | 0.00 | 0.00 | 98 | 1017.0 |
| 20260905044157 | 69 | 360 | 4.0 | 4.0 | 0.00 | 0.00 | 0.00 | 98 | 1017.0 |
| 20260905043656 | 69 | 360 | 4.0 | 4.0 | 0.00 | 0.00 | 0.00 | 98 | 1017.0 |
| 20260905043154 | 69 | 30 | 2.0 | 2.0 | 0.00 | 0.00 | 0.00 | 99 | 1017.0 |
| 20260905042652 | 69 | 30 | 2.0 | 2.0 | 0.00 | 0.00 | 0.00 | 99 | 1017.0 |
| 20260905042150 | 69 | 30 | 2.0 | 2.0 | 0.00 | 0.00 | 0.00 | 99 | 1017.0 |
| 20260905041649 | 69 | 30 | 2.0 | 2.0 | 0.00 | 0.00 | 0.00 | 99 | 1017.0 |
| 20260905041148 | 69 | 30 | 2.0 | 2.0 | 0.00 | 0.00 | 0.00 | 99 | 1017.0 |
| 20260905040646 | 69 | 30 | 2.0 | 2.0 | 0.00 | 0.00 | 0.00 | 99 | 1017.0 |
| 20260905040144 | 69 | 50 | 4.0 | 4.0 | 0.00 | 0.00 | 0.00 | 99 | 1017.0 |
| 20260905035642 | 69 | 50 | 4.0 | 4.0 | 0.00 | 0.00 | 0.00 | 99 | 1017.0 |
| 20260905035141 | 69 | 50 | 4.0 | 4.0 | 0.00 | 0.00 | 0.00 | 99 | 1017.0 |
| 20260905034638 | 69 | 50 | 4.0 | 4.0 | 0.00 | 0.00 | 0.00 | 99 | 1017.0 |
| 20260905034137 | 69 | 50 | 4.0 | 4.0 | 0.00 | 0.00 | 0.00 | 99 | 1017.0 |
| 20260905033636 | 69 | 50 | 4.0 | 4.0 | 0.00 | 0.00 | 0.00 | 99 | 1017.0 |
| 20260905033134 | 69 | 60 | 4.0 | 4.0 | 0.00 | 0.00 | 0.00 | 98 | 1017.0 |
| 20260905032632 | 69 | 60 | 4.0 | 4.0 | 0.00 | 0.00 | 0.00 | 98 | 1017.0 |
| 20260905032131 | 69 | 60 | 4.0 | 4.0 | 0.00 | 0.00 | 0.00 | 98 | 1017.0 |
| 20260905031630 | 69 | 60 | 4.0 | 4.0 | 0.00 | 0.00 | 0.00 | 98 | 1017.0 |
| 20260905031129 | 69 | 60 | 4.0 | 4.0 | 0.00 | 0.00 | 0.00 | 98 | 1017.0 |
| 20260905030626 | 69 | 0 | 2.0 | 2.0 | 0.00 | 0.00 | 0.00 | 98 | 1017.0 |
| 20260905030123 | 69 | 0 | 2.0 | 2.0 | 0.00 | 0.00 | 0.00 | 98 | 1017.0 |
| 20260905025621 | 69 | 0 | 2.0 | 2.0 | 0.00 | 0.00 | 0.00 | 98 | 1017.0 |
| 20260905025119 | 69 | 0 | 2.0 | 2.0 | 0.00 | 0.00 | 0.00 | 98 | 1017.0 |
| 20260905024617 | 69 | 0 | 2.0 | 2.0 | 0.00 | 0.00 | 0.00 | 98 | 1017.0 |
| 20260905024115 | 69 | 0 | 2.0 | 2.0 | 0.00 | 0.00 | 0.00 | 98 | 1017.0 |
| 20260905023613 | 69 | 360 | 2.0 | 2.0 | 0.00 | 0.00 | 0.00 | 98 | 1017.0 |
| 20260905023111 | 69 | 360 | 2.0 | 2.0 | 0.00 | 0.00 | 0.00 | 98 | 1017.0 |
| 20260905022609 | 69 | 360 | 2.0 | 2.0 | 0.00 | 0.00 | 0.00 | 98 | 1017.0 |
| 20260905022107 | 69 | 360 | 2.0 | 2.0 | 0.00 | 0.00 | 0.00 | 98 | 1017.0 |
| 20260905021606 | 69 | 360 | 2.0 | 2.0 | 0.00 | 0.00 | 0.00 | 98 | 1017.0 |
| 20260905021105 | 69 | 360 | 2.0 | 2.0 | 0.00 | 0.00 | 0.00 | 98 | 1017.0 |
| 20260905020603 | 69 | 0 | 2.0 | 2.0 | 0.00 | 0.00 | 0.00 | 98 | 1017.0 |
| 20260905015600 | 69 | 0 | 2.0 | 2.0 | 0.00 | 0.00 | 0.00 | 98 | 1017.0 |
| 20260905015058 | 69 | 0 | 2.0 | 2.0 | 0.00 | 0.00 | 0.00 | 98 | 1017.0 |
| 20260905014555 | 69 | 0 | 2.0 | 2.0 | 0.00 | 0.00 | 0.00 | 98 | 1017.0 |
| 20260905014051 | 69 | 0 | 2.0 | 2.0 | 0.00 | 0.00 | 0.00 | 98 | 1017.0 |
| 20260905013549 | 70 | 20 | 4.0 | 4.0 | 0.00 | 0.00 | 0.00 | 97 | 1017.0 |
| 20260905013046 | 70 | 20 | 4.0 | 4.0 | 0.00 | 0.00 | 0.00 | 97 | 1017.0 |
| 20260905012544 | 70 | 20 | 4.0 | 4.0 | 0.00 | 0.00 | 0.00 | 97 | 1017.0 |
| 20260905012042 | 70 | 20 | 4.0 | 4.0 | 0.00 | 0.00 | 0.00 | 97 | 1017.0 |
| 20260905011540 | 70 | 20 | 4.0 | 4.0 | 0.00 | 0.00 | 0.00 | 97 | 1017.0 |
| 20260905011038 | 70 | 20 | 4.0 | 4.0 | 0.00 | 0.00 | 0.00 | 97 | 1017.0 |
| 20260905010536 | 70 | 20 | 5.0 | 5.0 | 0.00 | 0.00 | 0.00 | 97 | 1017.0 |
| 20260905010035 | 70 | 20 | 5.0 | 5.0 | 0.00 | 0.00 | 0.00 | 97 | 1017.0 |
| 20260905005531 | 70 | 20 | 5.0 | 5.0 | 0.00 | 0.00 | 0.00 | 97 | 1017.0 |
| 20260905005029 | 70 | 20 | 5.0 | 5.0 | 0.00 | 0.00 | 0.00 | 97 | 1017.0 |
| 20260905004525 | 70 | 20 | 5.0 | 5.0 | 0.00 | 0.00 | 0.00 | 97 | 1017.0 |
| 20260905004023 | 70 | 20 | 5.0 | 5.0 | 0.00 | 0.00 | 0.00 | 97 | 1017.0 |
| 20260905003517 | 70 | 40 | 4.0 | 4.0 | 0.00 | 0.00 | 0.00 | 97 | 1016.0 |
| 20260905003016 | 70 | 40 | 4.0 | 4.0 | 0.00 | 0.00 | 0.00 | 97 | 1016.0 |
| 20260905002515 | 70 | 40 | 4.0 | 4.0 | 0.00 | 0.00 | 0.00 | 97 | 1016.0 |
| 20260905002014 | 70 | 40 | 4.0 | 4.0 | 0.00 | 0.00 | 0.00 | 97 | 1016.0 |
| 20260905001512 | 70 | 40 | 4.0 | 4.0 | 0.00 | 0.00 | 0.00 | 97 | 1016.0 |
| 20260905001009 | 70 | 40 | 4.0 | 4.0 | 0.00 | 0.00 | 0.00 | 97 | 1016.0 |
| 20260905000507 | 70 | 90 | 3.0 | 3.0 | 0.00 | 0.00 | 0.00 | 97 | 1017.0 |
| 20260905000004 | 70 | 90 | 3.0 | 3.0 | 0.00 | 0.00 | 0.00 | 97 | 1017.0 |
| 20260904235503 | 70 | 90 | 3.0 | 3.0 | 0.00 | 0.00 | 0.00 | 97 | 1017.0 |
| 20260904235001 | 70 | 90 | 3.0 | 3.0 | 0.00 | 0.00 | 0.00 | 97 | 1017.0 |
| 20260904234500 | 70 | 90 | 3.0 | 3.0 | 0.00 | 0.00 | 0.00 | 97 | 1017.0 |
| 20260904233958 | 70 | 90 | 3.0 | 3.0 | 0.00 | 0.00 | 0.00 | 97 | 1017.0 |
| 20260904233457 | 71 | 30 | 4.0 | 4.0 | 0.00 | 0.00 | 0.00 | 97 | 1017.0 |
| 20260904232956 | 71 | 30 | 4.0 | 4.0 | 0.00 | 0.00 | 0.00 | 97 | 1017.0 |
| 20260904232454 | 71 | 30 | 4.0 | 4.0 | 0.00 | 0.00 | 0.00 | 96 | 1017.0 |
| 20260904231951 | 71 | 30 | 4.0 | 4.0 | 0.00 | 0.00 | 0.00 | 96 | 1017.0 |
| 20260904231450 | 70 | 30 | 4.0 | 4.0 | 0.00 | 0.00 | 0.00 | 97 | 1017.0 |
| 20260904230948 | 70 | 30 | 4.0 | 4.0 | 0.00 | 0.00 | 0.00 | 97 | 1017.0 |
| 20260904230447 | 70 | 30 | 4.0 | 4.0 | 0.00 | 0.00 | 0.00 | 97 | 1017.0 |
| 20260904225946 | 71 | 40 | 6.0 | 6.0 | 0.00 | 0.00 | 0.00 | 97 | 1017.0 |
| 20260904225443 | 71 | 40 | 6.0 | 6.0 | 0.00 | 0.00 | 0.00 | 97 | 1017.0 |
| 20260904224941 | 71 | 40 | 6.0 | 6.0 | 0.00 | 0.00 | 0.00 | 97 | 1017.0 |
| 20260904224439 | 71 | 40 | 6.0 | 6.0 | 0.00 | 0.00 | 0.00 | 97 | 1017.0 |
| 20260904223938 | 71 | 40 | 6.0 | 6.0 | 0.00 | 0.00 | 0.00 | 97 | 1017.0 |
| 20260904223435 | 71 | 40 | 6.0 | 6.0 | 0.00 | 0.00 | 0.00 | 97 | 1017.0 |
| 20260904222933 | 72 | 30 | 5.0 | 5.0 | 0.00 | 0.00 | 0.00 | 96 | 1017.0 |
| 20260904222431 | 72 | 30 | 5.0 | 5.0 | 0.00 | 0.00 | 0.00 | 96 | 1017.0 |
| 20260904221930 | 72 | 30 | 5.0 | 5.0 | 0.00 | 0.00 | 0.00 | 96 | 1017.0 |
| 20260904221428 | 72 | 30 | 5.0 | 5.0 | 0.00 | 0.00 | 0.00 | 96 | 1017.0 |
| 20260904220925 | 71 | 50 | 6.0 | 6.0 | 0.00 | 0.00 | 0.00 | 93 | 1017.0 |
| 20260904220425 | 70 | 50 | 6.0 | 6.0 | 0.00 | 0.00 | 0.00 | 78 | 1017.0 |
| 20260904215924 | 70 | 50 | 6.0 | 6.0 | 0.00 | 0.00 | 0.00 | 78 | 1017.0 |
| 20260904215421 | 70 | 50 | 6.0 | 6.0 | 0.00 | 0.00 | 0.00 | 78 | 1017.0 |
| 20260904214918 | 70 | 50 | 6.0 | 6.0 | 0.00 | 0.00 | 0.00 | 78 | 1017.0 |
| 20260904214416 | 70 | 50 | 6.0 | 6.0 | 0.00 | 0.00 | 0.00 | 79 | 1017.0 |
| 20260904213915 | 70 | 50 | 6.0 | 6.0 | 0.00 | 0.00 | 0.00 | 79 | 1017.0 |
| 20260904213412 | 70 | 50 | 8.0 | 8.0 | 0.00 | 0.00 | 0.00 | 82 | 1017.0 |
| 20260904212909 | 70 | 50 | 8.0 | 8.0 | 0.00 | 0.00 | 0.00 | 82 | 1017.0 |
| 20260904212409 | 71 | 50 | 8.0 | 8.0 | 0.00 | 0.00 | 0.00 | 93 | 1017.0 |
| 20260904211907 | 71 | 50 | 8.0 | 8.0 | 0.00 | 0.00 | 0.00 | 93 | 1017.0 |
| 20260904211405 | 71 | 50 | 8.0 | 8.0 | 0.00 | 0.00 | 0.00 | 79 | 1017.0 |
| 20260904210902 | 71 | 50 | 8.0 | 8.0 | 0.00 | 0.00 | 0.00 | 79 | 1017.0 |
| 20260904210401 | 72 | 60 | 9.0 | 9.0 | 0.00 | 0.00 | 0.00 | 82 | 1017.0 |
| 20260904205859 | 72 | 60 | 9.0 | 9.0 | 0.00 | 0.00 | 0.00 | 82 | 1017.0 |
| 20260904205357 | 72 | 60 | 9.0 | 9.0 | 0.00 | 0.00 | 0.00 | 93 | 1017.0 |
| 20260904204855 | 72 | 60 | 9.0 | 9.0 | 0.00 | 0.00 | 0.00 | 93 | 1017.0 |
| 20260904204353 | 72 | 60 | 9.0 | 9.0 | 0.00 | 0.00 | 0.00 | 78 | 1017.0 |
| 20260904203852 | 72 | 60 | 9.0 | 9.0 | 0.00 | 0.00 | 0.00 | 78 | 1017.0 |
| 20260904203350 | 72 | 60 | 9.0 | 9.0 | 0.00 | 0.00 | 0.00 | 78 | 1017.0 |
| 20260904202849 | 72 | 60 | 9.0 | 9.0 | 0.00 | 0.00 | 0.00 | 78 | 1017.0 |
| 20260904202347 | 72 | 60 | 9.0 | 9.0 | 0.00 | 0.00 | 0.00 | 78 | 1017.0 |
| 20260904201844 | 72 | 60 | 9.0 | 9.0 | 0.00 | 0.00 | 0.00 | 79 | 1017.0 |
| 20260904201343 | 72 | 60 | 9.0 | 9.0 | 0.00 | 0.00 | 0.00 | 79 | 1017.0 |
| 20260904200842 | 72 | 60 | 9.0 | 9.0 | 0.00 | 0.00 | 0.00 | 83 | 1017.0 |
| 20260904200340 | 72 | 60 | 9.0 | 9.0 | 0.00 | 0.00 | 0.00 | 83 | 1017.0 |
| 20260904195838 | 73 | 60 | 9.0 | 9.0 | 0.00 | 0.00 | 0.00 | 94 | 1017.0 |
| 20260904195337 | 73 | 60 | 9.0 | 9.0 | 0.00 | 0.00 | 0.00 | 94 | 1017.0 |
| 20260904194835 | 75 | 60 | 9.0 | 9.0 | 0.00 | 0.00 | 0.00 | 94 | 1017.0 |
| 20260904194332 | 75 | 60 | 9.0 | 9.0 | 0.00 | 0.00 | 0.00 | 94 | 1017.0 |
| 20260904193829 | 75 | 50 | 11.0 | 11.0 | 0.00 | 0.00 | 0.00 | 95 | 1017.0 |
| 20260904193327 | 75 | 50 | 11.0 | 11.0 | 0.00 | 0.00 | 0.00 | 95 | 1017.0 |
| 20260904192825 | 75 | 50 | 11.0 | 11.0 | 0.00 | 0.00 | 0.00 | 93 | 1017.0 |
| 20260904192324 | 75 | 50 | 11.0 | 11.0 | 0.00 | 0.00 | 0.00 | 93 | 1017.0 |
| 20260904191821 | 74 | 50 | 11.0 | 11.0 | 0.00 | 0.00 | 0.00 | 93 | 1017.0 |
| 20260904191319 | 74 | 50 | 11.0 | 11.0 | 0.00 | 0.00 | 0.00 | 93 | 1017.0 |
| 20260904190817 | 74 | 40 | 13.0 | 13.0 | 0.00 | 0.00 | 0.00 | 92 | 1017.0 |
| 20260904190315 | 74 | 40 | 13.0 | 13.0 | 0.00 | 0.00 | 0.00 | 92 | 1017.0 |
| 20260904185813 | 74 | 40 | 13.0 | 13.0 | 0.00 | 0.00 | 0.00 | 92 | 1017.0 |
| 20260904185312 | 74 | 40 | 13.0 | 13.0 | 0.00 | 0.00 | 0.00 | 92 | 1017.0 |
| 20260904184811 | 74 | 40 | 13.0 | 13.0 | 0.00 | 0.00 | 0.00 | 92 | 1017.0 |
| 20260904184309 | 74 | 40 | 13.0 | 13.0 | 0.00 | 0.00 | 0.00 | 92 | 1017.0 |
| 20260904183807 | 74 | 30 | 12.0 | 12.0 | 0.00 | 0.00 | 0.00 | 92 | 1016.0 |
| 20260904183305 | 74 | 30 | 12.0 | 12.0 | 0.00 | 0.00 | 0.00 | 92 | 1016.0 |
| 20260904182802 | 74 | 30 | 12.0 | 12.0 | 0.00 | 0.00 | 0.00 | 92 | 1016.0 |
| 20260904182301 | 74 | 30 | 12.0 | 12.0 | 0.00 | 0.00 | 0.00 | 92 | 1016.0 |
| 20260904181759 | 74 | 30 | 12.0 | 12.0 | 0.00 | 0.00 | 0.00 | 92 | 1016.0 |
| 20260904181257 | 74 | 30 | 12.0 | 12.0 | 0.00 | 0.00 | 0.00 | 92 | 1016.0 |
| 20260904180756 | 74 | 30 | 12.0 | 12.0 | 0.00 | 0.00 | 0.00 | 92 | 1016.0 |
| 20260904180255 | 74 | 20 | 13.0 | 13.0 | 0.00 | 0.00 | 0.00 | 92 | 1016.0 |
| 20260904175754 | 74 | 20 | 13.0 | 13.0 | 0.00 | 0.00 | 0.00 | 92 | 1016.0 |
| 20260904175251 | 74 | 20 | 13.0 | 13.0 | 0.00 | 0.00 | 0.00 | 92 | 1016.0 |
| 20260904174750 | 74 | 20 | 13.0 | 13.0 | 0.00 | 0.00 | 0.00 | 92 | 1016.0 |
| 20260904174249 | 74 | 20 | 13.0 | 13.0 | 0.00 | 0.00 | 0.00 | 92 | 1016.0 |
| 20260904173746 | 74 | 20 | 13.0 | 13.0 | 0.00 | 0.00 | 0.00 | 92 | 1016.0 |
| 20260904173245 | 75 | 40 | 14.0 | 14.0 | 0.00 | 0.00 | 0.00 | 90 | 1015.0 |
| 20260904172743 | 75 | 40 | 14.0 | 14.0 | 0.00 | 0.00 | 0.00 | 90 | 1015.0 |
| 20260904172240 | 76 | 40 | 14.0 | 14.0 | 0.00 | 0.00 | 0.00 | 90 | 1015.0 |
| 20260904171739 | 76 | 40 | 14.0 | 14.0 | 0.00 | 0.00 | 0.00 | 90 | 1015.0 |
| 20260904171238 | 76 | 40 | 13.0 | 13.0 | 0.00 | 0.00 | 0.00 | 89 | 1016.0 |
| 20260904170736 | 76 | 40 | 13.0 | 13.0 | 0.00 | 0.00 | 0.00 | 89 | 1016.0 |
| 20260904170234 | 76 | 40 | 13.0 | 13.0 | 0.00 | 0.00 | 0.00 | 89 | 1016.0 |
| 20260904165732 | 76 | 40 | 13.0 | 13.0 | 0.00 | 0.00 | 0.00 | 89 | 1016.0 |
| 20260904165230 | 76 | 40 | 13.0 | 13.0 | 0.00 | 0.00 | 0.00 | 89 | 1016.0 |
| 20260904164729 | 76 | 40 | 13.0 | 13.0 | 0.00 | 0.00 | 0.00 | 89 | 1016.0 |
| 20260904164226 | 76 | 20 | 16.0 | 16.0 | 0.00 | 0.00 | 0.00 | 87 | 1016.0 |
| 20260904163725 | 76 | 20 | 16.0 | 16.0 | 0.00 | 0.00 | 0.00 | 87 | 1016.0 |